Location: Unnamed
(33.0780°N, 97.0417°W)
Time: 18:00:29
(UTC-06:00)

X-37B - Visible Passes

Search period start: 01 March 2021 00:00
Search period end: 11 March 2021 00:00
Orbit: 383 x 391 km, 45.0° (Epoch: 27 February)

Date Brightness Start Highest point End Pass type
(mag) Time Alt. Az. Time Alt. Az. Time Alt. Az.
01 Mar 1.4 06:06:43 11° NW 06:09:40 47° NNE 06:12:44 10° ESE visible
02 Mar 2.4 05:11:11 26° NNE 05:11:12 26° NNE 05:13:56 10° E visible
03 Mar 0.5 05:48:05 28° WNW 05:49:35 79° SW 05:52:43 10° SE visible
04 Mar 3.0 04:52:49 24° E 04:52:49 24° E 04:54:16 10° ESE visible
04 Mar 2.5 06:25:34 10° W 06:27:35 16° SW 06:29:36 10° S visible
05 Mar 1.7 05:30:00 30° SSW 05:30:00 30° SSW 05:32:16 10° SSE visible
07 Mar 3.3 20:02:50 10° S 20:03:01 11° S 20:03:01 11° S visible
08 Mar 2.9 19:06:35 10° SE 19:07:13 10° SE 19:07:51 10° ESE visible
08 Mar 3.8 20:40:17 10° WSW 20:40:32 12° WSW 20:40:32 12° WSW visible
09 Mar 0.8 19:42:03 10° SW 19:45:08 49° SE 19:45:35 44° ESE visible
10 Mar 2.3 20:20:24 10° W 20:22:51 33° NW 20:22:51 33° NW visible
